Regional Weather Roundup
Issued by NWS

Home | Current Version | Previous Version | Text Only | Print | Product List | Glossary On
Versions: 1 2 3 4 5 6 7 8 9 10 11 12 13 14 15 16 17 18 19 20 21 22 23 24 25 26 27 28 29 30 31 32 33 34 35 36 37 38 39 40 41 42 43 44 45 46 47 48 49 50
000
ASUS44 KFWD 101615
RWRTX
NORTH TEXAS HOURLY WEATHER ROUNDUP
NATIONAL WEATHER SERVICE FORT WORTH TX
1000 AM CST WED FEB 10 2016

NOTE: "FAIR" INDICATES FEW OR NO CLOUDS BELOW 12,000 FEET WITH NO
SIGNIFICANT WEATHER AND/OR OBSTRUCTIONS TO VISIBILITY.

TXZ118-119-101700-
DALLAS/FORT WORTH METROPLEX

CITY           SKY/WX    TMP DP  RH WIND       PRES   REMARKS
DFW AIRPORT    SUNNY     50  25  37 S12       30.33S
DALLAS LOVE    SUNNY     49  25  39 VRB5      30.34S
FTW MEACHAM    SUNNY     50  29  44 S14       30.33S
DAL-EXECUTIVE  SUNNY     50  24  36 S9        30.33S
FTW-ALLIANCE   SUNNY     51  28  41 S9        30.32S
FTW-NAS-JRB    SUNNY     53  28  38 SW12      30.33F
FTW-SPINKS     SUNNY     52  28  40 S10       30.35S
ARLINGTON      SUNNY     52  26  36 S8        30.33F
GRAND PRAIRIE  SUNNY     48  25  40 S9        30.35F
ADDISON        SUNNY     48  39  71 S9        30.33F
MESQUITE       SUNNY     46  25  42 S7        30.36R
LANCASTER      SUNNY     49  23  35 S10       30.36S
$$

TXZ091>094-102>105-117-120-121-131>134-101700-
NORTH CENTRAL TEXAS

CITY           SKY/WX    TMP DP  RH WIND       PRES   REMARKS
SHRMAN/DENISON SUNNY     47  25  41 SW12      30.32F
GAINESVILLE    SUNNY     47  25  41 S12       30.32F
BOWIE          SUNNY     49  28  45 S13       30.29F
BRIDGEPORT     SUNNY     52  31  44 SW7       30.33S
DECATUR        SUNNY     48  25  40 S8        30.30F
DENTON         SUNNY     49  27  42 S12       30.33S
MCKINNEY       SUNNY     48  24  39 S10       30.33F
GREENVILLE     SUNNY     48  21  34 S8        30.34F
ROCKWALL       SUNNY     48  24  38 SW10G20   30.33F
TERRELL        SUNNY     47  27  45 S8        30.36S
WAXAHACHIE     SUNNY     49  28  43 S12       30.35F
CLEBURNE       SUNNY     50  25  37 S15       30.35S
GRANBURY       SUNNY     53  30  41 S9        30.35S
$$

TXZ083>090-098>101-113>116-127>130-139>142-154-155-101700-
WESTERN NORTH TEXAS

CITY           SKY/WX    TMP DP  RH WIND       PRES   REMARKS
WICHITA FALLS  SUNNY     48  28  46 S13       30.27F
WF-KICKAPOO    SUNNY     49  29  45 S10G18    30.29S
VERNON         SUNNY     46  27  48 SW6       30.26F
ABILENE        SUNNY     56  30  37 S12       30.33R
ABILENE-DYESS  SUNNY     59  31  35 S8        30.31S
BRECKENRIDGE   SUNNY     57  31  37 SW12      30.31S
GRAHAM         SUNNY     50  32  50 S8        30.29F
MINERAL WELLS  SUNNY     50  30  46 S8        30.31S
STEPHENVILLE   SUNNY     53  26  35 S14G22    30.36S
COMANCHE       SUNNY     55  30  38 S14G25    30.34S
BROWNWOOD      SUNNY     52  30  43 MISG      30.36F
COLEMAN        SUNNY     54  30  41 S9        30.35F
$$

TXZ143>147-156>162-174-175-101700-
CENTRAL TEXAS

CITY           SKY/WX    TMP DP  RH WIND       PRES   REMARKS
WACO           SUNNY     51  29  42 S9        30.38R
WACO-TSTC      SUNNY     52  28  40 S12       30.38S
WACO-MCGREGOR  SUNNY     55  30  38 S9        30.38S
HILLSBORO      SUNNY     49  28  43 S13       30.36S
CORSICANA      SUNNY     51  29  42 S9        30.38R
MEXIA          SUNNY     50  27  42 S14       30.37R
HEARNE         SUNNY     51  29  44 SE6       30.41S
CAMERON        SUNNY     51  31  46 S6        30.40R
TEMPLE         SUNNY     52  29  41 S9        30.39S
KILLEEN        SUNNY     53  27  37 S9        30.37R
KILLEEN-SKYLRK SUNNY     52  28  39 S10       30.38S
FORT HOOD      SUNNY     54  26  34 S12       30.36R
GATESVILLE     SUNNY     54  27  35 S10       30.39F
HAMILTON       SUNNY     54  28  37 S15       30.36S
LAMPASAS       SUNNY     55  31  39 S7        30.37S
$$

TXZ095>097-106>112-122>126-135>138-148>153-164>167-101700-
EAST TEXAS

CITY           SKY/WX    TMP DP  RH WIND       PRES   REMARKS
PARIS          SUNNY     43  19  39 S7        30.34S WCI  39
SULPHUR SPRNGS SUNNY     46  24  41 CALM      30.37S
MOUNT PLEASANT SUNNY     45  23  42 CALM      30.37S
GILMER           N/A    N/A N/A N/A MISG        N/A
MINEOLA        SUNNY     46  23  39 S6        30.37S
TYLER          SUNNY     48  22  35 S6        30.36S
LONGVIEW       SUNNY     46  23  40 CALM      30.36S
MARSHALL       SUNNY     45  20  36 CALM      30.39R
ATHENS         SUNNY     46  25  42 S6        30.37R
PALESTINE      SUNNY     49  26  41 S7        30.39R
JACKSONVILLE   SUNNY     49  21  33 S5        30.38R
HENDERSON      SUNNY     48  23  37 CALM      30.37S
CENTER         FAIR      48  19  32 CALM      30.37S
NACOGDOCHES    SUNNY     50  19  29 CALM      30.38S
LUFKIN         SUNNY     51  21  30 VRB3      30.39R
$$

SUPPLEMENTAL OBSERVATIONS (CENTRAL)

CITY           SKY/WX    TMP DP  RH WIND       PRES   REMARKS
LAKE TEXOMA      N/A     46  25  42 SW9         N/A
CADDO GRASSLND   N/A     45  23  42 S8          N/A
PAT MAYSE LAKE   N/A     39  19  45 SW2         N/A
LAKE LIMESTONE   N/A     54  28  37 S12         N/A
MCGREGOR         N/A     54  32  43 S9          N/A
TEMPLE           N/A     54  28  37 S9          N/A
$$

SUPPLEMENTAL OBSERVATIONS (WEST)

CITY           SKY/WX    TMP DP  RH WIND       PRES   REMARKS
POSSUM KINGDOM   N/A     57  36  44 SW10        N/A
LBJ GRASSLAND    N/A     52  28  40 S7          N/A
GRANBURY         N/A     54  28  37 S12         N/A
COMANCHE         N/A     55  32  41 SW17G25     N/A
HAMBY            N/A     57  32  38 SW12        N/A
IVIE RESERVOIR   N/A     55  28  35 W3          N/A
COLORADO BEND    N/A     55  28  35 SW9G17      N/A
$$

SUPPLEMENTAL OBSERVATIONS (EAST)

CITY           SKY/WX    TMP DP  RH WIND       PRES   REMARKS
CLARKSVILLE      N/A     45  23  42 S3          N/A
GILMER           N/A     48  23  37 S5          N/A
HENDERSON        N/A     52  23  32 S3          N/A
LUFKIN           N/A     54  27  35 MISG        N/A
S SABINE NF      N/A     50  25  37 E3          N/A
$$

SUPPLEMENTAL OBSERVATIONS ARE A COLLECTION OF AUTOMATED INSTRUMENTS
THAT ARE MAINTAINED BY A VARIETY OF FEDERAL AND STATE AGENCIES.
CERTAIN ELEMENTS...SUCH AS HUMIDITY VALUES AND SUSTAINED WIND
SPEEDS...MAY BE APPROXIMATED.




USA.gov is the U.S. government's official web portal to all federal, state and local government web resources and services.